www.pogodaiklimat.ru

Погода и климат >> Архив погоды >> Намибия >> Аэропорт Walvis Bay


ПОГОДА в Аэропорту Walvis Bay

  • Прогноз погоды в Аэропорту Walvis Bay
  • Монитор погоды в Аэропорту Walvis Bay

АРХИВ ПОГОДЫ в Аэропорту Walvis Bay

Время (UTC), дата Ветер
(напр.,м/с)
 
Видим.   Явления Облачность Т
(С)
Тd
(С)
f
(%)
Тe
(С)
Тes
(С)
Комфортность P
(гПа)
Po
(гПа)
Тmin
(С)
Tmax
(С)
R
(мм)
R24
(мм)
S
(см)
09 20.05 ЮЗ 2 >70 км ясно +14.4 +11.9 85 +14 +23 1021.7 1010.8 +10.0 +14.4
12 20.05 З 5 >70 км ясно +21.6 +10.2 48 +23 +29 комфорт 1018.4 1007.8 +10.0 +21.8
15 20.05 ЮЗ 9 3000 м пыльный позёмок ясно +21.3 +12.3 56 +23 +24 комфорт 1016.6 1006.0 +20.6 +22.9
18 20.05 З 4 30 км мгла ясно +15.7 +11.9 78 +15 +15 1017.5 1006.7 +15.7 +22.9
21 20.05 СВ 2 н/о н/о +13.3 +10.6 84 +13 +13 1018.0 1007.1 +13.3 +22.9
00 21.05 В 2 н/о н/о +11.9 +9.6 86 +11 +11 1017.5 1006.5 +11.9 +22.9
03 21.05 СВ 2 30 км ясно +10.6 +8.2 85 +9 +9 1016.3 1005.3 +10.4 +22.9
06 21.05 СВ 2 100 м туман 10/10 100 м
[St]
+9.6 +8.8 95 +8 +8 1016.8 1005.7 +9.6
09 21.05 С 1 >70 км ясно +14.4 +13.6 95 +15 +24 1017.4 1006.5 +9.5 +14.4
12 21.05 З 3 >70 км ясно +20.6 +12.4 59 +23 +32 комфорт 1015.3 1004.7 +9.5 +20.7
15 21.05 З 2 >70 км ясно +21.5 +10.7 50 +23 +25 комфорт 1013.3 1002.7 +20.2 +22.5
18 21.05 С 1 >70 км ясно +15.3 +10.1 71 +16 +16 1013.7 1002.9 +15.3 +22.5
21 21.05 С 1 н/о н/о +14.2 +9.4 73 +15 +15 1014.0 1003.1 +14.2 +22.5
00 22.05 СВ 3 н/о н/о +11.8 +9.3 85 +10 +10 1014.1 1003.2 +11.7 +22.5
03 22.05 З 2 н/о н/о +12.8 +8.9 77 +12 +12 1013.1 1002.2 +11.7 +22.5
09 22.05 С 2 >70 км ясно +17.8 +10.7 63 +18 +26 1015.5 1004.8 +11.4 +17.8
15 22.05 СЗ 3 30 км 9/0 1500 м
[Ac cast]
+19.2 +11.1 59 +20 +21 1013.7 1003.0 +19.2 +23.3
18 22.05 СВ 5 30 км 10/0 1500 м
[Ac As]
+14.7 +11.1 79 +13 +13 1016.3 1005.4 +14.6 +23.3
21 22.05 СВ 2 н/о н/о +14.5 +11.5 82 +14 +14 1016.8 1005.9 +14.5 +23.3
00 23.05 С 2 н/о н/о +13.5 +11.0 85 +13 +13 1015.6 1004.7 +13.4 +23.3
03 23.05 С 2 н/о н/о +13.2 +11.1 87 +13 +13 1016.0 1005.1 +13.0 +23.3
09 23.05 Ю 4 30 км 5/0 2000 м
[Ac cast]
+22.9 +10.1 44 +25 +28 комфорт 1016.2 1005.6 +13.0 +22.9
12 23.05 СЗ 4 >70 км 3/0 2000 м
[Ac cast]
+17.7 +12.2 70 +17 +23 1016.2 1005.5 +13.0 +23.6
15 23.05 З 3 >70 км ясно +18.0 +11.8 67 +18 +20 1015.3 1004.6 +17.0 +23.6
18 23.05 З 2 30 км ясно +15.7 +11.1 74 +16 +16 1015.8 1005.0 +15.7 +23.6
21 23.05 В 2 н/о н/о +14.8 +10.2 74 +15 +15 1015.9 1005.0 +14.3 +23.6
00 24.05 СЗ 2 н/о н/о +13.8 +11.3 85 +13 +13 1015.8 1004.9 +13.7 +23.6
03 24.05 С 2 30 км ясно +13.1 +10.6 85 +12 +12 1015.5 1004.6 +13.0 +23.6
06 24.05 ЮВ 1 30 км 9/0 1500 м
[Ac As]
+11.2 +9.6 90 +11 +11 1016.7 1005.7 +10.8
09 24.05 СЗ 2 >70 км ясно +18.3 +11.9 66 +19 +27 1017.5 1006.8 +10.8 +18.5
12 24.05 З 4 >70 км 4/0 2000 м
[Ac cast]
+27.7 +11.1 36 +29 +34 жарко 1015.0 1004.6 +10.8 +27.7
15 24.05 З 4 >70 км 3/0 2000 м
[Ac cast]
+28.4 +9.9 32 +29 +30 жарко 1014.0 1003.7 +26.3 +29.6
18 24.05 В 2 >70 км 8/0 2000 м
[Ac cast]
+23.3 +10.2 43 +25 +25 комфорт 1014.9 1004.4 +22.6 +29.6
21 24.05 В 3 н/о н/о +26.5 +0.5 18 +25 +25 комфорт 1015.3 1004.9 +22.6 +29.6
00 25.05 С 3 н/о н/о +27.6 -1.9 14 +25 +25 комфорт 1014.8 1004.4 +22.6 +29.6
03 25.05 СВ 2 30 км 5/0 2000 м
[Ac cast]
+16.6 +10.9 69 +17 +17 1015.0 1004.2 +16.3 +29.6
06 25.05 С 5 >70 км 8/0 2000 м
[Ac cast Ci sp]
+24.7 +4.1 26 +24 +24 комфорт 1015.4 1004.9 +14.8
09 25.05 В 14 1000 м сильная пыльная буря {метель} ясно +33.5 +0.6 12 +30 +30 жарко 1015.5 1005.3 +14.8 +33.7
12 25.05 З 8 4000 м пыльный позёмок 5/0
[Ci sp]
+28.8 +8.7 28 +28 +30 жарко 1014.1 1003.8 +14.8 +38.5
15 25.05 З 4 н/о н/о +29.9 +4.8 20 +28 +28 жарко 1013.6 1003.3 +28.3 +38.5
18 25.05 ЮВ 2 >70 км ясно +24.1 +4.1 27 +24 +24 комфорт 1014.8 1004.3 +24.1 +38.5
21 25.05 ЮВ 6 н/о н/о +24.9 +2.6 23 +24 +24 комфорт 1015.7 1005.2 +23.5 +38.5
00 26.05 ЮВ 7 н/о н/о +25.2 +2.2 22 +24 +24 комфорт 1014.6 1004.1 +23.5 +38.5
03 26.05 В 10 >70 км ясно +23.7 -0.3 20 +22 +22 комфорт 1014.0 1003.5 +23.1 +38.5
06 26.05 СВ 3 >70 км ясно +23.0 +0.9 23 +22 +22 комфорт 1015.7 1005.2 +20.4
12 26.05 СЗ 5 >70 км ясно +31.5 +1.1 14 +29 +35 жарко 1014.2 1004.0 +20.4 +35.7
15 26.05 ЮЗ 7 5000 м пыльный позёмок ясно +28.6 +4.4 21 +27 +28 жарко 1013.8 1003.5 +28.0 +35.7
18 26.05 Ю 4 >70 км ясно +24.0 +5.5 30 +24 +24 комфорт 1014.6 1004.1 +22.2 +35.7
21 26.05 Ю 2 н/о н/о +23.9 +4.0 27 +23 +23 комфорт 1015.8 1005.3 +22.2 +35.7
00 27.05 З 2 н/о н/о +17.4 +8.8 57 +18 +18 1015.3 1004.6 +17.4 +35.7
03 27.05 ЮВ 1 >70 км ясно +15.1 +10.7 75 +16 +16 1014.8 1004.0 +15.0 +35.7
06 27.05 З 3 >70 км 4/0 2000 м
[Ac cast]
+13.4 +8.5 72 +12 +13 1016.5 1005.6 +13.4

 

Местоположение метеостанции Аэропорт Walvis Bay (Намибия): широта -22.98 долгота 14.65 высота над уровнем моря 88 м.

В архиве по умолчанию представлена погода в Аэропорту Walvis Bay за последнюю неделю. Архивные данные за месяц целиком и за предыдущие месяцы, начиная с января 2011 года, Вы можете получить, выбрав интересующий диапазон дат из раскрывающегося списка и нажав кнопку "Ввод!".


*Определитесь, кто Вы:
робот инопланетянин человек

Внимание! Время в таблицах - всемирное. Для получения местного времени необходимо прибавить поправку, которая равна 2 ч.

Смотрите также архив погоды в соседних городах и на ближайших метеорологических станциях:

Погода в Виндхуке (Намибия) (256 км)
Погода в Виндхук аэропорту (Намибия) (295 км)
Погода в Очиваронго (Намибия) (348 км)
Погода в Аэропорту Eros (Намибия) (356 км)
Погода в Людерице (Намибия) (409 км)
Погода в Окаукуечо (Намибия) (432 км)
Погода в Гобабисе (Намибия) (447 км)
Погода в Хрутфонтейне (Намибия) (520 км)
Погода в Китмансхупе (Намибия) (528 км)
Погода в Ондангва аэропорту (Намибия) (579 км)

Пояснения к столбцам:

Ветер - указаны скорость ветра в м/с - средняя за 10 мин, порывы в срок и между сроками (в фигурных скобках) и направление, откуда дует ветер: С - северный, СВ - северо-восточный, В - восточный, ЮВ - юго-восточный, Ю - южный, ЮЗ - юго-западный, З - западный, СЗ - северо-западный.
Видимость - горизонтальная дальность видимости в метрах или километрах. При видимости от 1 до 10 км при отсутствии осадков обычно наблюдается дымка, при ухудшении видимости до 1 км и менее - туман. В сухую погоду видимость может ухудшаться дымом, пылью или мглою.
Явления - указаны атмосферные явления, наблюдавшиеся в срок или в последний час перед сроком; фигурными скобками обозначены явления, наблюдавшиеся между сроками (за 1-3 часа до срока); квадратными скобками обозначены град или гололедные отложения с указанием их диаметра в мм.
Облачность - указаны через наклонную черту общая и нижняя облачность в баллах и высота нижней границы облаков в метрах; квадратными скобками обозначены формы облаков: Ci - перистые, Cs - перисто-слоистые, Cc - перисто-кучевые, Ac - высококучевые, As - высокослоистые, Sc - слоисто-кучевые, Ns - слоисто-дождевые, Cu - кучевые, Cb - кучево-дождевые. Подробнее классификацию облаков см. в Атласе облаков (PDF).
T - Температура воздуха - температура, измеренная на высоте 2 м над землей.
Td - Температура точки росы - температура, при понижении до которой содержащийся в воздухе водяной пар достигнет насыщения.
f - Относительная влажность воздуха - влажноcть воздуха, измеренная на высоте 2 м над землей.
Te - Эффективная температура - температура, которую ощущает одетый по сезону человек в тени. Характеристика душности погоды. При расчете учитывается влияние влажности воздуха и скорости ветра на теплоощущения человека.
Tes - Эффективная температура на солнце - температура, которую ощущает человек, с поправкой на солнечный нагрев. Характеристика знойности погоды. Зависит от высоты солнца над горизонтом, облачности и скорости ветра. Ночью, в пасмурную погоду, а также при ветре 12 м/с и более поправка равна нулю.
P - Атмосферное давление - приведенное к уровню моря атмосферное давление.
Po - Атмосферное давление - измеренное на уровне метеостанции атмосферное давление.
Tmin - Минимальная температура - минимум температуры воздуха на высоте 2 м над землей.
Tmax - Максимальная температура - максимум температуры воздуха на высоте 2 м над землей.
R - Количество осадков - Количество выпавших осадков за период времени, мм. При наведении курсора мыши на число - период времени, за который выпало указанное количество осадков.
R24 - Количество осадков - Количество выпавших осадков за 24 часа, мм.
S - Снежный покров - Высота снежного покрова, см. При наведении курсора мыши на число - состояние снежного покрова и степень покрытия местности в баллах.